Location: Caltech
(34.1382°N, 118.1253°W)
Time: 01:35:41
(UTC-07:00)

Oscar 11 - Visible Passes

Search period start: 02 August 2014 00:00
Search period end: 12 August 2014 00:00
Orbit: 617 x 630 km, 97.8° (Epoch: 01 August)

Date Brightness Start Highest point End Pass type
(mag) Time Alt. Az. Time Alt. Az. Time Alt. Az.
02 Aug 8.3 21:14:49 23° E 21:15:47 25° ENE 21:19:18 10° NNE visible
02 Aug 9.1 22:52:04 22° W 22:52:04 22° W 22:55:15 10° NW visible
03 Aug 7.5 21:33:36 38° E 21:34:10 40° ENE 21:38:12 10° N visible
03 Aug 9.7 23:10:51 13° W 23:10:51 13° W 23:12:37 10° WNW visible
04 Aug 6.9 21:52:23 68° E 21:52:36 69° ENE 21:56:53 10° N visible
05 Aug 7.2 22:11:09 69° W 22:11:09 69° W 22:15:23 10° NNW visible
06 Aug 8.9 20:52:41 13° E 20:53:47 14° ENE 20:56:06 10° NE visible
06 Aug 8.2 22:29:56 39° W 22:29:56 39° W 22:33:40 10° NNW visible
07 Aug 8.4 21:11:28 22° E 21:12:07 23° ENE 21:15:30 10° NNE visible
07 Aug 9.0 22:48:43 24° W 22:48:43 24° W 22:51:41 10° NW visible
08 Aug 7.7 21:30:15 36° E 21:30:29 37° ENE 21:34:27 10° N visible
08 Aug 9.7 23:07:30 14° W 23:07:30 14° W 23:09:14 10° WNW visible
09 Aug 7.1 21:49:01 62° ENE 21:49:01 62° ENE 21:53:10 10° N visible
10 Aug 7.3 22:07:48 68° NW 22:07:48 68° NW 22:11:41 10° NNW visible
11 Aug 9.0 20:49:20 13° ENE 20:50:07 13° ENE 20:52:07 10° NE visible
11 Aug 8.2 22:26:35 41° WNW 22:26:35 41° WNW 22:30:00 10° NNW visible
